Total_Precipitation_Accumulation
0.48 0.39 0.33 0.27 0.21 0.17 0.14 0.14 0.15 0.14 0.15 0.16 0.16 0.16 0.16 0.11 0.04 0.01 0.00 0.00 0.00 0.00 0.00 0.00 0.00 0.00 0.00 0.00 0.00 0.00 0.00 0.00 0.00 0.00 0.00 0.00 0.00 0.00 0.00 0.00 0.00 0.00 0.03 0.02 0.02 0.02 0.00 0.00 0.00 0.00 0.00 0.00 0.00 0.01
0.48 0.48 0.40 0.35 0.34 0.29 0.24 0.21 0.20 0.23 0.24 0.23 0.23 0.24 0.25 0.23 0.16 0.07 0.02 0.00 0.00 0.00 0.00 0.00 0.00 0.00 0.00 0.00 0.00 0.00 0.00 0.00 0.00 0.00 0.00 0.00 0.00 0.00 0.00 0.00 0.00 0.00 0.00 0.01 0.01 0.01 0.00 0.00 0.00 0.00 0.00 0.00 0.00 0.04
0.45 0.47 0.47 0.47 0.44 0.37 0.30 0.27 0.27 0.28 0.29 0.32 0.33 0.33 0.33 0.33 0.30 0.17 0.06 0.02 0.01 0.01 0.00 0.00 0.00 0.00 0.00 0.00 0.00 0.00 0.00 0.00 0.00 0.00 0.00 0.00 0.00 0.00 0.00 0.00 0.00 0.00 0.01 0.02 0.00 0.00 0.00 0.00 0.00 0.00 0.00 0.00 0.00 0.01
0.40 0.47 0.47 0.45 0.46 0.45 0.41 0.35 0.30 0.28 0.27 0.32 0.37 0.42 0.45 0.47 0.45 0.38 0.17 0.06 0.07 0.09 0.04 0.01 0.00 0.00 0.00 0.00 0.00 0.00 0.00 0.00 0.00 0.00 0.00 0.00 0.00 0.00 0.00 0.00 0.00 0.00 0.01 0.01 0.01 0.00 0.00 0.00 0.00 0.00 0.00 0.00 0.00 0.00
0.35 0.43 0.48 0.49 0.48 0.47 0.46 0.45 0.45 0.43 0.40 0.38 0.41 0.49 0.54 0.58 0.76 0.95 0.48 0.20 0.11 0.19 0.21 0.05 0.01 0.00 0.00 0.00 0.00 0.00 0.00 0.00 0.00 0.00 0.00 0.00 0.00 0.00 0.00 0.00 0.00 0.00 0.00 0.00 0.01 0.00 0.00 0.00 0.00 0.00 0.00 0.00 0.00 0.02
0.32 0.45 0.50 0.50 0.53 0.55 0.52 0.52 0.53 0.56 0.56 0.55 0.53 0.54 0.63 0.85 1.31 0.89 0.67 0.27 0.09 0.13 0.36 0.28 0.05 0.01 0.00 0.00 0.00 0.00 0.00 0.00 0.00 0.00 0.00 0.00 0.00 0.00 0.01 0.00 0.00 0.00 0.00 0.00 0.00 0.00 0.00 0.00 0.00 0.00 0.00 0.00 0.00 0.01
0.23 0.39 0.54 0.60 0.56 0.58 0.61 0.62 0.67 0.74 0.75 0.78 0.81 0.80 0.90 1.09 0.75 0.87 0.75 0.21 0.03 0.08 0.45 0.52 0.18 0.07 0.04 0.00 0.00 0.00 0.00 0.00 0.00 0.01 0.00 0.00 0.01 0.01 0.01 0.00 0.00 0.01 0.00 0.00 0.00 0.00 0.00 0.00 0.00 0.00 0.00 0.00 0.00 0.00
0.13 0.28 0.47 0.65 0.73 0.72 0.72 0.78 0.87 1.09 1.22 1.30 1.38 1.42 1.56 1.38 1.05 0.91 0.59 0.34 0.14 0.22 0.48 0.77 0.33 0.07 0.05 0.03 0.02 0.01 0.00 0.00 0.01 0.01 0.01 0.00 0.01 0.01 0.01 0.00 0.00 0.00 0.00 0.00 0.00 0.00 0.00 0.00 0.00 0.00 0.00 0.00 0.00 0.00
0.08 0.17 0.33 0.53 0.76 0.89 0.97 1.09 1.42 1.80 2.15 2.46 2.39 1.91 1.49 1.30 0.96 0.70 0.43 0.36 0.32 0.53 0.91 0.58 0.09 0.02 0.06 0.04 0.04 0.06 0.06 0.08 0.09 0.05 0.01 0.01 0.01 0.01 0.00 0.00 0.00 0.00 0.00 0.00 0.00 0.00 0.00 0.00 0.00 0.00 0.00 0.00 0.00 0.00
0.07 0.10 0.23 0.38 0.60 0.90 1.21 1.70 2.29 2.97 3.24 2.54 1.64 1.36 1.65 1.29 0.68 0.53 0.94 1.09 1.09 0.99 0.86 0.36 0.04 0.04 0.02 0.03 0.05 0.10 0.16 0.12 0.12 0.01 0.01 0.04 0.01 0.00 0.00 0.00 0.00 0.00 0.00 0.00 0.00 0.00 0.00 0.00 0.00 0.00 0.00 0.00 0.01 0.02
0.09 0.09 0.13 0.32 0.53 0.91 1.63 2.46 3.16 3.00 2.13 1.40 1.60 1.79 1.74 1.13 0.86 1.26 1.56 1.34 0.93 0.59 0.31 0.10 0.01 0.04 0.02 0.02 0.07 0.19 0.30 0.20 0.13 0.01 0.01 0.01 0.00 0.00 0.00 0.00 0.00 0.00 0.00 0.00 0.00 0.00 0.00 0.00 0.00 0.00 0.00 0.00 0.00 0.01
0.15 0.16 0.15 0.24 0.59 1.21 1.95 2.50 2.09 1.29 1.14 1.11 1.12 1.14 1.46 1.41 1.44 1.58 1.36 0.75 0.40 0.12 0.04 0.02 0.01 0.00 0.03 0.02 0.15 0.40 0.39 0.39 0.19 0.04 0.03 0.00 0.00 0.00 0.00 0.00 0.00 0.00 0.00 0.00 0.00 0.00 0.00 0.00 0.00 0.00 0.00 0.00 0.00 0.00
0.13 0.20 0.26 0.34 0.68 1.29 1.81 1.33 0.75 0.79 1.10 1.39 2.14 2.34 2.13 2.07 1.69 1.18 0.57 0.21 0.07 0.02 0.02 0.01 0.01 0.01 0.04 0.16 0.46 0.53 0.44 0.27 0.12 0.05 0.01 0.00 0.00 0.00 0.00 0.00 0.00 0.00 0.00 0.00 0.00 0.00 0.00 0.00 0.00 0.00 0.00 0.00 0.00 0.00
0.09 0.16 0.28 0.49 0.76 0.92 0.89 0.99 1.22 0.76 0.95 2.44 2.96 2.58 1.90 1.63 0.75 0.26 0.06 0.00 0.00 0.00 0.00 0.00 0.01 0.03 0.12 0.34 0.56 0.51 0.37 0.17 0.08 0.01 0.00 0.00 0.00 0.00 0.00 0.00 0.00 0.00 0.00 0.00 0.00 0.00 0.00 0.00 0.00 0.00 0.00 0.00 0.00 0.00
0.08 0.16 0.34 0.57 0.66 0.51 0.67 0.98 0.89 0.94 2.20 3.13 2.41 1.67 1.26 0.55 0.19 0.03 0.00 0.00 0.00 0.01 0.01 0.03 0.13 0.28 0.38 0.64 0.57 0.37 0.32 0.12 0.01 0.00 0.00 0.00 0.00 0.00 0.00 0.00 0.00 0.00 0.00 0.00 0.00 0.00 0.00 0.01 0.00 0.00 0.00 0.00 0.00 0.00
0.14 0.37 0.39 0.45 0.53 0.63 0.82 1.09 1.79 2.43 3.28 3.12 2.20 1.20 0.51 0.11 0.04 0.02 0.01 0.03 0.02 0.03 0.10 0.31 0.57 0.66 0.57 0.44 0.33 0.11 0.05 0.01 0.00 0.01 0.01 0.00 0.00 0.00 0.00 0.00 0.00 0.00 0.00 0.01 0.02 0.03 0.04 0.04 0.01 0.01 0.00 0.00 0.00 0.00
0.38 0.36 0.18 0.38 0.75 1.22 1.57 1.77 2.30 2.98 3.19 2.62 1.38 0.50 0.15 0.04 0.02 0.04 0.08 0.09 0.07 0.16 0.37 0.64 0.69 0.42 0.39 0.28 0.09 0.01 0.00 0.00 0.01 0.01 0.00 0.00 0.00 0.00 0.00 0.00 0.01 0.02 0.03 0.04 0.05 0.06 0.05 0.02 0.01 0.01 0.01 0.00 0.00 0.00
0.36 0.24 0.26 0.81 1.43 1.60 1.96 2.31 2.62 2.84 2.40 1.24 0.48 0.18 0.07 0.03 0.07 0.13 0.19 0.18 0.28 0.46 0.59 0.72 0.58 0.52 0.24 0.07 0.00 0.00 0.00 0.00 0.00 0.00 0.00 0.00 0.01 0.01 0.03 0.04 0.06 0.08 0.09 0.09 0.08 0.06 0.04 0.03 0.02 0.02 0.01 0.00 0.00 0.00
0.32 0.27 0.30 0.47 0.57 1.13 1.87 2.27 2.13 1.54 0.72 0.22 0.08 0.08 0.12 0.17 0.20 0.19 0.24 0.33 0.39 0.38 0.58 0.71 0.67 0.36 0.06 0.00 0.00 0.00 0.01 0.01 0.01 0.02 0.02 0.03 0.05 0.07 0.09 0.09 0.12 0.13 0.11 0.09 0.07 0.05 0.03 0.02 0.02 0.01 0.00 0.00 0.00 0.00
0.59 0.71 0.69 0.98 1.47 2.19 2.00 1.39 0.94 0.62 0.37 0.14 0.09 0.15 0.23 0.27 0.29 0.36 0.50 0.55 0.57 0.69 0.72 0.47 0.16 0.02 0.00 0.00 0.01 0.03 0.04 0.05 0.08 0.09 0.07 0.08 0.11 0.13 0.13 0.13 0.13 0.12 0.10 0.07 0.04 0.03 0.03 0.02 0.02 0.01 0.00 0.00 0.01 0.00
1.22 1.67 1.61 1.55 2.12 1.85 1.14 0.67 0.37 0.40 0.32 0.15 0.19 0.24 0.33 0.39 0.41 0.43 0.44 0.47 0.60 0.50 0.23 0.05 0.01 0.01 0.01 0.03 0.06 0.06 0.07 0.09 0.11 0.12 0.12 0.14 0.14 0.12 0.09 0.08 0.07 0.06 0.04 0.03 0.03 0.03 0.02 0.01 0.01 0.01 0.01 0.00 0.00 0.01
1.38 1.09 1.50 1.85 1.59 1.32 0.84 0.57 0.34 0.23 0.21 0.20 0.19 0.27 0.31 0.33 0.34 0.37 0.40 0.55 0.34 0.06 0.00 0.00 0.00 0.00 0.01 0.04 0.06 0.07 0.07 0.08 0.08 0.07 0.05 0.05 0.06 0.06 0.08 0.08 0.06 0.05 0.04 0.04 0.03 0.02 0.01 0.01 0.00 0.00 0.01 0.01 0.01 0.01
0.78 0.90 1.07 1.38 1.22 0.81 0.71 0.48 0.36 0.31 0.31 0.38 0.38 0.39 0.32 0.26 0.29 0.31 0.40 0.24 0.05 0.00 0.00 0.00 0.00 0.02 0.07 0.09 0.11 0.08 0.07 0.07 0.07 0.06 0.05 0.04 0.04 0.05 0.08 0.09 0.05 0.04 0.03 0.02 0.02 0.01 0.01 0.01 0.01 0.01 0.01 0.01 0.01 0.01
0.59 0.87 0.99 0.94 0.78 0.58 0.29 0.22 0.20 0.17 0.20 0.22 0.24 0.27 0.17 0.14 0.19 0.24 0.15 0.02 0.00 0.00 0.00 0.00 0.01 0.05 0.07 0.05 0.03 0.03 0.04 0.05 0.07 0.06 0.04 0.05 0.04 0.03 0.05 0.08 0.07 0.04 0.02 0.01 0.01 0.01 0.01 0.01 0.01 0.01 0.02 0.01 0.01 0.01
0.66 0.79 0.64 0.49 0.28 0.11 0.06 0.08 0.11 0.11 0.09 0.08 0.10 0.14 0.10 0.12 0.17 0.13 0.02 0.00 0.00 0.00 0.00 0.00 0.01 0.02 0.03 0.03 0.04 0.05 0.07 0.06 0.06 0.06 0.04 0.05 0.09 0.08 0.08 0.08 0.06 0.04 0.02 0.02 0.01 0.01 0.02 0.01 0.01 0.00 0.00 0.01 0.01 0.01
0.44 0.32 0.16 0.09 0.05 0.02 0.02 0.03 0.07 0.06 0.07 0.13 0.16 0.13 0.09 0.14 0.13 0.05 0.00 0.00 0.00 0.00 0.00 0.01 0.02 0.02 0.02 0.02 0.04 0.05 0.06 0.09 0.13 0.12 0.05 0.05 0.07 0.08 0.08 0.07 0.07 0.05 0.03 0.01 0.02 0.02 0.01 0.01 0.01 0.01 0.00 0.00 0.01 0.02
0.26 0.10 0.04 0.02 0.02 0.03 0.04 0.05 0.05 0.08 0.13 0.12 0.09 0.07 0.15 0.21 0.07 0.01 0.01 0.01 0.00 0.00 0.00 0.00 0.02 0.03 0.02 0.02 0.06 0.10 0.17 0.18 0.15 0.09 0.07 0.10 0.11 0.09 0.08 0.06 0.04 0.03 0.03 0.03 0.02 0.01 0.01 0.01 0.00 0.00 0.00 0.00 0.00 0.00
0.08 0.02 0.04 0.06 0.05 0.05 0.06 0.09 0.11 0.12 0.11 0.09 0.07 0.10 0.12 0.10 0.03 0.01 0.01 0.01 0.01 0.02 0.02 0.02 0.03 0.06 0.05 0.06 0.12 0.17 0.19 0.14 0.13 0.15 0.16 0.12 0.08 0.07 0.06 0.05 0.04 0.04 0.04 0.02 0.01 0.01 0.01 0.01 0.00 0.00 0.00 0.00 0.00 0.00
0.05 0.06 0.08 0.10 0.12 0.14 0.14 0.13 0.13 0.11 0.07 0.08 0.11 0.14 0.14 0.08 0.06 0.06 0.05 0.05 0.04 0.02 0.02 0.01 0.03 0.09 0.11 0.13 0.16 0.19 0.19 0.16 0.16 0.13 0.08 0.06 0.05 0.06 0.06 0.07 0.06 0.05 0.03 0.03 0.03 0.03 0.02 0.01 0.01 0.00 0.00 0.00 0.00 0.00
0.08 0.10 0.10 0.11 0.11 0.10 0.09 0.09 0.10 0.12 0.17 0.24 0.22 0.21 0.17 0.14 0.11 0.08 0.05 0.03 0.03 0.03 0.03 0.04 0.07 0.12 0.14 0.15 0.17 0.20 0.21 0.22 0.21 0.16 0.13 0.11 0.11 0.12 0.11 0.11 0.08 0.06 0.04 0.03 0.02 0.02 0.02 0.03 0.04 0.04 0.03 0.00 0.00 0.00
0.10 0.11 0.11 0.11 0.10 0.09 0.13 0.17 0.19 0.21 0.23 0.23 0.21 0.19 0.17 0.14 0.10 0.07 0.04 0.04 0.03 0.04 0.04 0.06 0.08 0.09 0.10 0.11 0.14 0.17 0.20 0.21 0.21 0.20 0.17 0.16 0.15 0.11 0.09 0.08 0.08 0.05 0.03 0.02 0.02 0.01 0.01 0.01 0.01 0.01 0.01 0.01 0.01 0.01
0.13 0.17 0.17 0.17 0.15 0.16 0.19 0.19 0.18 0.16 0.17 0.17 0.15 0.14 0.13 0.11 0.09 0.06 0.04 0.03 0.02 0.02 0.04 0.07 0.09 0.09 0.10 0.09 0.10 0.14 0.18 0.19 0.18 0.18 0.17 0.19 0.14 0.07 0.05 0.04 0.06 0.07 0.06 0.03 0.01 0.01 0.01 0.01 0.01 0.00 0.00 0.00 0.01 0.01
0.16 0.16 0.16 0.16 0.14 0.13 0.13 0.16 0.14 0.12 0.12 0.12 0.11 0.11 0.10 0.09 0.09 0.09 0.07 0.09 0.09 0.09 0.07 0.07 0.08 0.08 0.08 0.09 0.10 0.13 0.15 0.15 0.18 0.18 0.16 0.14 0.13 0.13 0.11 0.07 0.05 0.04 0.03 0.02 0.02 0.02 0.01 0.01 0.01 0.01 0.01 0.01 0.00 0.00